Location: George Washington National Forest Helicopter Landing Site
(38.6463°N, 79.0851°W)
Time: 16:38:54
(UTC-04:00)

Courier 1B - All Passes

Search period start: 19 August 2019 00:00
Search period end: 29 August 2019 00:00
Orbit: 962 x 1209 km, 28.3° (Epoch: 19 August)

Date Brightness Start Highest point End Pass type
(mag) Time Alt. Az. Time Alt. Az. Time Alt. Az.
19 Aug - 00:07:16 10° WSW 00:12:32 26° SSW 00:17:56 10° SE visible
19 Aug - 02:03:07 10° SW 02:05:41 12° SSW 02:08:18 10° S night (unlit)
19 Aug - 19:27:35 10° SSW 19:32:26 22° SSE 19:37:11 10° ESE daylight
19 Aug - 21:19:59 10° WSW 21:25:39 32° S 21:31:19 10° ESE visible
19 Aug - 23:13:32 10° WSW 23:18:58 29° S 23:24:32 10° SE visible
20 Aug - 01:08:25 10° WSW 01:12:09 16° SSW 01:15:58 10° SSE night (unlit)
20 Aug - 18:34:34 10° SSW 18:38:54 18° SSE 18:43:08 10° ESE daylight
20 Aug - 20:26:29 10° SW 20:32:06 31° S 20:37:40 10° ESE visible
20 Aug - 22:19:49 10° WSW 22:25:25 31° S 22:31:04 10° SE visible
21 Aug - 00:14:12 10° WSW 00:18:38 19° SSW 00:23:08 10° SSE visible
21 Aug - 17:41:51 10° S 17:45:23 15° SSE 17:48:48 10° SE daylight
21 Aug - 19:33:01 10° SW 19:38:33 28° S 19:43:58 10° ESE daylight
21 Aug - 21:26:09 10° WSW 21:31:52 33° S 21:37:33 10° ESE visible
21 Aug - 23:20:13 10° WSW 23:25:07 23° SSW 23:30:04 10° SSE visible
22 Aug - 16:49:53 10° S 16:51:50 11° SSE 16:53:44 10° SE daylight
22 Aug - 18:39:37 10° SW 18:45:00 25° SSE 18:50:11 10° ESE daylight
22 Aug - 20:32:29 10° WSW 20:38:18 33° S 20:44:00 10° ESE visible
22 Aug - 22:26:19 10° WSW 22:31:35 26° SSW 22:36:51 10° SE visible
23 Aug - 00:22:12 10° SW 00:24:40 12° SSW 00:27:09 10° S night (unlit)
23 Aug - 17:46:20 10° SSW 17:51:25 22° SSE 17:56:20 10° ESE daylight
23 Aug - 19:38:50 10° WSW 19:44:44 33° S 19:50:25 10° ESE daylight
23 Aug - 21:32:30 10° WSW 21:38:03 30° S 21:43:32 10° SE visible
23 Aug - 23:27:27 10° WSW 23:31:11 16° SSW 23:34:55 10° SSE visible
24 Aug - 16:53:13 10° SSW 16:57:51 19° SSE 17:02:19 10° ESE daylight
24 Aug - 18:45:14 10° SW 18:51:08 31° S 18:56:49 10° ESE daylight
24 Aug - 20:38:43 10° WSW 20:44:30 32° S 20:50:08 10° SE visible
24 Aug - 22:33:10 10° WSW 22:37:41 20° SSW 22:42:10 10° SSE visible
25 Aug - 16:00:26 10° S 16:04:16 15° SSE 16:08:00 10° ESE daylight
25 Aug - 17:51:40 10° SW 17:57:32 29° SSE 18:03:08 10° ESE daylight
25 Aug - 19:44:56 10° WSW 19:50:55 34° S 19:56:41 10° ESE daylight
25 Aug - 21:39:06 10° WSW 21:44:10 24° SSW 21:49:10 10° SE visible
26 Aug - 15:08:18 10° S 15:10:40 12° SSE 15:13:00 10° SE daylight
26 Aug - 16:58:11 10° SW 17:03:55 26° SSE 17:09:23 10° ESE daylight
26 Aug - 18:51:10 10° WSW 18:57:19 34° S 19:03:11 10° ESE daylight
26 Aug - 20:45:07 10° WSW 20:50:39 28° SSW 20:56:01 10° SE visible
26 Aug - 22:40:57 10° SW 22:43:42 13° SSW 22:46:26 10° S visible
27 Aug - 16:04:50 10° SSW 16:10:17 23° SSE 16:15:31 10° ESE daylight
27 Aug - 17:57:26 10° WSW 18:03:41 34° S 18:09:38 10° ESE daylight
27 Aug - 19:51:13 10° WSW 19:57:05 31° S 20:02:44 10° SE daylight
27 Aug - 21:46:11 10° WSW 21:50:13 17° SSW 21:54:11 10° SSE visible
28 Aug - 15:11:41 10° SSW 15:16:39 19° SSE 15:21:27 10° ESE daylight
28 Aug - 17:03:43 10° SW 17:10:02 32° S 17:16:01 10° ESE daylight
28 Aug - 18:57:19 10° WSW 19:03:30 34° S 19:09:22 10° SE daylight
28 Aug - 20:51:52 10° WSW 20:56:43 21° SSW 21:01:27 10° SSE visible
